Regional Weather Roundup
Issued by NWS Portland, ME

Home | Current Version | Previous Version | Text Only | Print | Product List | Glossary On
Versions: 1 2 3 4 5 6 7 8 9 10 11 12 13 14 15 16 17 18 19 20 21 22 23 24 25 26 27 28 29 30 31 32 33 34 35 36 37 38 39 40 41 42 43 44 45 46 47 48 49 50
000
ASUS41 KGYX 041910
RWRGYX
WEATHER ROUNDUP FOR MAINE AND NEW HAMPSHIRE
NATIONAL WEATHER SERVICE GRAY ME
300 PM EDT SAT JUL 04 2015

MEZ002-005-006-010-012-015-018-020-021-024-026-027-029-042000-
MAINE

CITY           SKY/WX    TMP DP  RH WIND       PRES   REMARKS
PORTLAND       CLOUDY    67  59  75 SE6       29.98S
SANFORD        CLOUDY    68  57  68 SW6       30.00R
BAR HARBOR     CLOUDY    75  52  43 S9        29.98S
WISCASSET      CLOUDY    69  57  65 SE3       29.99F
ROCKLAND       CLOUDY    66  57  72 SE9       29.98R
FRYEBURG       CLOUDY    71  57  61 SW3       29.98S
LEWISTONAUBURN CLOUDY    72  59  64 S6        29.98S
AUGUSTA        CLOUDY    72  57  59 SW3       29.97F
WATERVILLE       N/A    N/A N/A N/A MISG        N/A
BANGOR         CLOUDY    75  53  46 S12       29.97S
GREENVILLE       N/A     72  49  44 VRB5      29.96S
MILLINOCKET    CLOUDY    76  51  41 VRB6      29.96S
HOULTON        PTSUNNY   77  49  37 CALM      29.92F
PRESQUE ISLE   PTSUNNY   77  46  33 W5        29.92F
FRENCHVILLE    CLOUDY    73  50  44 W9        29.93F
CARIBOU        PTSUNNY   76  48  37 VRB6      29.92S
$$

NHZ002-005-008-009-011-012-014-042000-
NEW HAMPSHIRE

CITY           SKY/WX    TMP DP  RH WIND       PRES   REMARKS
PORTSMOUTH     CLOUDY    71  61  70 W3        29.98R
ROCHESTER      LGT RAIN  69  62  78 CALM      29.99R
NASHUA         LGT RAIN  70  64  81 N8        30.00S
MANCHESTER     LGT RAIN  69  63  81 NW5       29.98S
CONCORD        LGT RAIN  67  61  81 W5        30.00S
LACONIA        CLOUDY    64  57  77 S7        29.99S
PLYMOUTH       PTSUNNY   67  62  82 S3        29.99S HAZE
BERLIN         CLOUDY    72  52  49 S5        29.98S
WHITEFIELD     CLOUDY    71  56  58 CALM      29.98S
JAFFREY        LGT RAIN  63  59  87 CALM      30.03S FOG
KEENE          CLOUDY    64  57  77 CALM      30.02S
LEBANON        CLOUDY    67  58  72 S9        29.98S
MT WASHINGTON  CLOUDY    46  41  81 W14         N/A
$$

VTZ005-007-008-042000-
VERMONT

CITY           SKY/WX    TMP DP  RH WIND       PRES   REMARKS
ST JOHNSBURY     N/A     69  54  58 MISG      29.95F
MONTPELIER     CLOUDY    68  55  63 S9        30.01S
BURLINGTON     CLOUDY    73  58  59 S12       29.93S
$$

MAZ007-012-024-CTZ003-RIZ002-NYZ038-NYZ072-042000-
SOUTHERN NEW ENGLAND AND NY

CITY           SKY/WX    TMP DP  RH WIND       PRES   REMARKS
BOSTON         CLOUDY    68  58  70 E7        29.98S
WORCESTER      LGT RAIN  68  57  68 NW5       30.02R
NANTUCKET      CLOUDY    67  52  58 NE10      29.95S
PROVIDENCE     CLOUDY    74  51  44 CALM      29.98S
HARTFORD       LGT RAIN  69  61  75 N8        29.98F
ALBANY         CLOUDY    67  62  84 S6        29.98F
NEW YORK CITY  LGT RAIN  71  61  70 NE7       29.95F
$$

ANZ081-ANZ082-ANZ150-NHZ014-MEZ023>029-042000-
COASTAL MARINE OBSERVATIONS

STATION/POSITION TIME  TEMP    WIND        PRES    WAVE
                       AIR SEA DIR/SP/G            HT/PER
                 (UTC) (F)     (DEG/KT/KT) (MB)    (FT/S)
MOUNT DESERT ROC 1900   58     180/ 14/ 15 1016.1F
MATINICUS ROCK   1900   58     170/ 12/ 13 1015.6F
ISLE OF SHOALS   1900   66     190/  4/  4 1015.1R
JEFFREYS LEDGE   1803      60                N/A     3/ 9
CASHES LEDGE BUO 1850   59 59              1015.4S   3/ 9
GEORGES BANK BUO 1850   61 60   60/ 10/ 12 1014.6F   5/ 8
$$

.............KEY..............
   WCI - WIND CHILL
   TC  - TEMPERATURE IN CELSIUS
   VSB - VISIBILITY IN MILES
   HX  - HEAT INDEX
   FAIR- INDICATES FEW OR NO CLOUDS BELOW 12,000 FT, WITH NO
         SIGNIFICANT WEATHER AND/OR OBSTRUCTIONS TO VISIBILITY.




USA.gov is the U.S. government's official web portal to all federal, state and local government web resources and services.